Regional Weather Roundup
Issued by NWS

Home | Current Version | Previous Version | Graphics & Text | Print | Product List | Glossary On
Versions: 1 2 3 4 5 6 7 8 9 10 11 12 13 14 15 16 17 18 19 20 21 22 23 24 25 26 27 28 29 30 31 32 33 34 35 36 37 38 39 40 41 42 43 44 45 46 47 48 49 50
000
ASUS43 KLOT 291703
RWRIL

ILLINOIS REGIONAL WEATHER ROUNDUP
NATIONAL WEATHER SERVICE CHICAGO/ROMEOVILLE IL
1200 PM CDT MON AUG 29 2016

NOTE: "FAIR" INDICATES FEW OR NO CLOUDS BELOW 12,000 FEET WITH NO
SIGNIFICANT WEATHER AND/OR OBSTRUCTIONS TO VISIBILITY.

* THESE STATIONS ARE NOT UNDER NWS QUALITY CONTROL. THEY ALSO MAY NOT
  REPORT WEATHER SUCH AS PRECIPITATION OR FOG.

ILZ001-002-007-009-015-016-024-291800-
NORTHWEST ILLINOIS

CITY           SKY/WX    TMP DP  RH WIND       PRES   REMARKS
MOLINE         SUNNY     84  73  69 E7        30.23S HX  90
STERLING*      MOSUNNY   82  74  76 S5        30.25R HX  88
SAVANNA*       PTSUNNY   81  72  73 CALM      30.24S HX  85
$$

ILZ003-004-008-010-011-017-018-291800-
NORTH CENTRAL ILLINOIS

CITY           SKY/WX    TMP DP  RH WIND       PRES   REMARKS
ROCKFORD       CLOUDY    84  71  65 SE8       30.26S HX  89
FREEPORT*      MOSUNNY   79  72  78 NE5       30.28S HX  82
ROCHELLE*      CLOUDY    82  73  74 SE5       30.26S HX  87
$$

ILZ005-006-012>014-019>023-291800-
NORTHEAST ILLINOIS

CITY           SKY/WX    TMP DP  RH WIND       PRES   REMARKS
CHICAGO-OHARE  PTSUNNY   83  72  69 SE7       30.24F HX  88
CHICAGO-MIDWAY PTSUNNY   85  68  56 E9        30.24F HX  88
AURORA         MOSUNNY   85  70  60 SE8       30.25S HX  89
LANSING*       SUNNY     84  72  68 S7        30.25S HX  89
JOLIET*        MOSUNNY   84  73  69 SE7       30.25S HX  90
WAUKEGAN       SUNNY     79  71  76 VRB6      30.27R HX  82
DUPAGE AIRPORT SUNNY     84  70  62 SE6       30.25S HX  88
KANKAKEE*      MOSUNNY   83  73  70 SE6       30.25F HX  89
WHEELING       MOSUNNY   82  71  69 E8        30.26F HX  86
MORRIS*        MOSUNNY   83  73  70 SE6       30.24S HX  89
ROMEOVILLE*    MOSUNNY   83  75  76 SE6       30.25F HX  91
$$

LMZ740>746-291800-
SOUTHERN LAKE MICHIGAN

STATION/POSITION SKY/WX   TEMP    WIND        PRES    VSBY  WAVE
                          AIR SEA DIR/SP/G                  HT/PER
                          (F)     (DEG/KT/KT) (MB)    (MI)  (FT/S)
SOUTHERN BUOY              74 75  120/  6/  8 1024.2          0
WILMETTE HARBOR            73 71  350/  2/  4   N/A           1/ 2
HARRISON CRIB              78      CALM  /  1   N/A
BURNHAM HARBOR             78      70/  2/  3   N/A
CALUMET HARBOR             77      60/  5/  6 1024.0R
BURNS HARBOR               83     100/  3/  7 1024.7S
MICHIGAN CITY              80     100/  9/ 10   N/A
MICHIGAN CITY 6N           78 75  160/  8/ 10   N/A           1/ 3
ST. JOSEPH                 77 75  130/  6/  8 1024.1R         1
$$

ILZ025>027-034>036-040-047-049-050-058-095>099-291800-
WEST-CENTRAL ILLINOIS

CITY           SKY/WX    TMP DP  RH WIND       PRES   REMARKS
QUINCY         PTSUNNY   87  73  62 CALM      30.21F HX  94
GALESBURG*     SUNNY     86  75  69 CALM      30.23S HX  94
MACOMB*        MOSUNNY   84  76  76 SE3       30.25S HX  93
JACKSONVILLE*  MOSUNNY   87  76  69 CALM      30.22S HX  97
PITTSFIELD*    SUNNY     87  76  69 CALM      30.23S HX  98
$$

ILZ028>032-037-038-041>044-048-051>054-059>061-291800-
CENTRAL ILLINOIS

CITY           SKY/WX    TMP DP  RH WIND       PRES   REMARKS
PONTIAC        SUNNY     85  77  78 E5        30.25S HX  95
BLOOMINGTON    MOSUNNY   85  75  72 E5        30.25S HX  93
DECATUR        SUNNY     85  72  65 VRB7      30.24S HX  91
PEORIA         PTSUNNY   85  75  72 E6        30.23S HX  93
LACON*         PTSUNNY   82  74  76 CALM      30.23F HX  88
LINCOLN*       SUNNY     89  75  63 SE5       30.23S HX  99
SPRINGFIELD    SUNNY     88  72  58 SE3       30.23S HX  94
TAYLORVILLE    SUNNY     85  74  70 E5        30.23S HX  93
$$

ILZ033-039-045-046-055>057-062-063-291800-
EAST-CENTRAL ILLINOIS

CITY           SKY/WX    TMP DP  RH WIND       PRES   REMARKS
CHAMPAIGN      SUNNY     83  72  69 E5        30.25S HX  88
RANTOUL*       SUNNY     84  73  68 SE7       30.25S HX  90
MATTOON        SUNNY     83  69  62 SE7       30.23F HX  86
PARIS*         SUNNY     84  73  69 CALM      30.24F HX  90
$$

ILZ079-100>102-291800-
SOUTHWEST ILLINOIS

CITY           SKY/WX    TMP DP  RH WIND       PRES   REMARKS
ALTON          MOSUNNY   86  73  66 SE3       30.22S HX  93
BELLEVILLE     SUNNY     88  74  63 E3        30.19S HX  97
CAHOKIA*       MOSUNNY   90  73  57 N5        30.20S HX  98
SPARTA*        MOSUNNY   87  76  69 NE3       30.21S HX  97
$$

ILZ064>066-069>071-074>076-080>082-084>086-088>090-092>094-291800-
SOUTH-CENTRAL ILLINOIS

CITY           SKY/WX    TMP DP  RH WIND       PRES   REMARKS
CARBONDALE     SUNNY     87  73  62 E3        30.19F HX  94
EFFINGHAM*     SUNNY     85  75  72 CALM      30.24F HX  92
MARION         MOSUNNY   90  72  55 E6        30.20F HX  96
MT. VERNON     SUNNY     88  70  55 SE6       30.21F HX  92
CENTRALIA*     MOSUNNY   87  76  69 CALM      30.21S HX  97
SALEM*         PTSUNNY   86  74  67 E3        30.22S HX  94
METROPOLIS*    SUNNY     89  75  62 E5        30.18S HX  99
$$

ILZ067-068-072-073-078-083-087-091-291800-
SOUTHEAST ILLINOIS

CITY           SKY/WX    TMP DP  RH WIND       PRES   REMARKS
LAWRENCEVILLE  SUNNY     86  70  58 VRB5      30.22F HX  90
FLORA*         SUNNY     86  74  67 SE3       30.22F HX  94
FAIRFIELD*     SUNNY     85  71  62 CALM      30.20F HX  91
HARRISBURG*    SUNNY     88  72  58 E6        30.20S HX  94
ROBINSON*      SUNNY     84  72  66 E3        30.23F HX  90
CARMI*         SUNNY     87  73  63 NE6       30.20S HX  95
$$

ABBREVIATIONS USED IN REMARKS
   TC - TEMPERATURE IN CELSIUS
  WCI - WIND CHILL INDEX
   HX - HEAT INDEX
  VSB - VISIBILITY
$$





USA.gov is the U.S. government's official web portal to all federal, state and local government web resources and services.